GW7029 Weather Reports


Display with metric or nautical units.
time (UTC)temp
F
wind
direction
speed
MPH
gust
MPH
rain 1hr
in
rain 24hr
in
rain mn
in
humidity
%
barometer
mb
20260510190926 71 274 2.0 9.0 0.00 0.28 0.00 48 1013.3
20260510190004 71 335 1.0 10.0 0.00 0.29 0.00 51 1013.3
20260510185405 71 222 1.0 3.0 0.00 0.29 0.00 53 1013.6
20260510184504 70 329 1.0 13.0 0.00 0.29 0.00 57 1013.6
20260510183604 71 311 2.0 8.0 0.00 0.29 0.00 52 1013.6
20260510182704 71 179 1.0 7.0 0.00 0.29 0.00 55 1013.6
20260510181804 71 209 1.0 3.0 0.00 0.29 0.00 57 1014.0
20260510180904 71 247 1.0 3.0 0.00 0.29 0.00 57 1013.6
20260510180005 71 186 1.0 4.0 0.00 0.29 0.00 55 1013.6
20260510175404 70 279 1.0 4.0 0.00 0.29 0.00 56 1013.6
20260510174504 71 273 1.0 6.0 0.00 0.29 0.00 58 1013.6
20260510173604 70 294 1.0 4.0 0.00 0.29 0.00 61 1013.3
20260510172704 69 63 1.0 6.0 0.00 0.29 0.00 59 1013.6
20260510171825 69 285 1.0 9.0 0.00 0.29 0.00 58 1013.6
20260510170904 70 267 1.0 4.0 0.00 0.29 0.00 56 1013.6
20260510170004 70 172 1.0 3.0 0.00 0.29 0.00 61 1013.6
20260510165425 70 123 1.0 9.0 0.00 0.29 0.00 60 1013.6
20260510164504 69 195 2.0 4.0 0.00 0.29 0.00 59 1013.6
20260510163625 68 182 1.0 4.0 0.00 0.29 0.00 65 1014.0
20260510162704 68 277 1.0 4.0 0.00 0.30 0.00 62 1013.6
20260510161826 68 269 1.0 6.0 0.00 0.30 0.00 62 1014.0
20260510160904 68 264 2.0 6.0 0.00 0.30 0.00 61 1014.0
20260510160004 68 228 1.0 4.0 0.00 0.31 0.00 65 1014.0
20260510155404 67 252 1.0 3.0 0.00 0.31 0.00 67 1014.0
20260510154504 68 155 2.0 10.0 0.00 0.31 0.00 65 1014.0
20260510153604 66 213 2.0 6.0 0.00 0.31 0.00 69 1014.0
20260510152725 65 249 1.0 6.0 0.00 0.31 0.00 69 1014.0
20260510151825 65 221 2.0 10.0 0.00 0.31 0.00 70 1014.3
20260510150904 64 201 1.0 6.0 0.00 0.31 0.00 72 1014.3
20260510150004 63 156 1.0 4.0 0.00 0.31 0.00 76 1014.0
20260510145425 63 137 2.0 6.0 0.00 0.31 0.00 77 1014.3
20260510144504 63 107 1.0 6.0 0.00 0.31 0.00 76 1014.0
20260510143625 63 147 1.0 8.0 0.00 0.31 0.00 77 1014.0
20260510142725 61 116 2.0 6.0 0.00 0.31 0.00 80 1014.0
20260510141825 60 230 1.0 3.0 0.00 0.31 0.00 81 1014.0
20260510140926 59 257 1.0 3.0 0.00 0.31 0.00 81 1014.3
20260510140004 58 235 1.0 3.0 0.00 0.31 0.00 84 1014.0
20260510135425 58 183 1.0 4.0 0.00 0.31 0.00 85 1014.3
20260510134504 57 96 1.0 6.0 0.00 0.31 0.00 86 1014.0
20260510133604 56 143 1.0 4.0 0.00 0.31 0.00 88 1014.3
20260510132704 55 136 1.0 4.0 0.00 0.31 0.00 88 1014.0
20260510131804 55 15 0.0 2.0 0.00 0.31 0.00 88 1014.0
20260510130904 55 4 0.0 1.0 0.00 0.31 0.00 88 1014.0
20260510130004 54 55 0.0 2.0 0.00 0.31 0.00 88 1014.0
20260510125404 54 69 0.0 3.0 0.00 0.31 0.00 89 1014.0
20260510124504 55 93 0.0 3.0 0.00 0.31 0.00 89 1013.6
20260510123604 55 116 1.0 2.0 0.00 0.31 0.00 90 1013.6
20260510122725 54 128 1.0 2.0 0.00 0.31 0.00 90 1013.6
20260510121804 54 114 1.0 4.0 0.00 0.31 0.00 92 1013.6
20260510120904 53 73 0.0 2.0 0.00 0.31 0.00 93 1014.0
20260510120025 52 66 0.0 1.0 0.00 0.31 0.00 94 1013.6
20260510115404 51 66 0.0 1.0 0.00 0.31 0.00 94 1014.0
20260510114504 51 66 0.0 1.0 0.00 0.31 0.00 94 1013.6
20260510113625 51 67 0.0 1.0 0.00 0.31 0.00 94 1013.6
20260510112704 50 69 0.0 1.0 0.00 0.31 0.00 94 1013.3
20260510111804 50 71 0.0 1.0 0.00 0.31 0.00 95 1013.3
20260510110904 50 71 0.0 1.0 0.00 0.31 0.00 95 1013.3
20260510110005 50 71 0.0 1.0 0.00 0.31 0.00 95 1013.3
20260510105405 50 71 0.0 1.0 0.00 0.31 0.00 95 1013.3
20260510104504 50 0 0.0 0.0 0.00 0.31 0.00 95 1013.3
20260510103605 50 70 0.0 1.0 0.00 0.31 0.00 95 1012.9
20260510102704 50 70 0.0 1.0 0.00 0.32 0.00 95 1012.9
20260510101804 50 70 0.0 2.0 0.00 0.32 0.00 95 1012.9
20260510100904 50 54 0.0 1.0 0.00 0.32 0.00 95 1012.9
20260510100004 50 54 0.0 1.0 0.00 0.32 0.00 95 1012.6
20260510095404 50 55 0.0 2.0 0.00 0.32 0.00 95 1012.6
20260510094504 50 57 0.0 1.0 0.00 0.32 0.00 95 1012.2
20260510093604 50 71 0.0 2.0 0.00 0.32 0.00 95 1012.2
20260510092704 50 51 0.0 1.0 0.00 0.33 0.00 95 1012.2
20260510091804 50 51 0.0 1.0 0.00 0.33 0.00 94 1012.9
20260510090904 50 50 0.0 1.0 0.00 0.33 0.00 94 1012.9
20260510090025 49 47 0.0 1.0 0.00 0.33 0.00 94 1012.9
20260510085404 50 45 0.0 1.0 0.00 0.34 0.00 94 1012.6
20260510084525 49 47 0.0 1.0 0.00 0.34 0.00 94 1012.6
20260510083604 49 52 0.0 1.0 0.00 0.35 0.00 94 1012.9
20260510082725 49 46 0.0 1.0 0.00 0.36 0.00 94 1012.9
20260510081804 49 0 0.0 0.0 0.00 0.36 0.00 94 1012.9
20260510080904 50 0 0.0 0.0 0.00 0.38 0.00 94 1012.6
20260510080004 50 46 0.0 1.0 0.00 0.38 0.00 94 1012.6
20260510075425 50 46 0.0 1.0 0.00 0.38 0.00 94 1012.9
20260510074504 50 47 0.0 1.0 0.00 0.38 0.00 94 1012.9
20260510073604 50 46 0.0 1.0 0.00 0.38 0.00 94 1012.9
20260510072704 50 84 0.0 1.0 0.00 0.38 0.00 94 1012.6
20260510071825 50 84 0.0 1.0 0.00 0.38 0.00 94 1012.6
20260510070904 50 83 0.0 3.0 0.00 0.38 0.00 94 1012.6
20260510070004 50 79 0.0 1.0 0.00 0.38 0.00 94 1012.2
20260510065403 50 79 0.0 1.0 0.00 0.38 0.00 94 1012.2
20260510064504 50 0 0.0 0.0 0.00 0.38 0.00 94 1012.6
20260510063604 50 0 0.0 0.0 0.00 0.38 0.00 94 1012.9
20260510062704 50 0 0.0 0.0 0.00 0.38 0.00 94 1012.6
20260510061804 50 79 0.0 1.0 0.00 0.38 0.00 94 1012.6
20260510060904 50 82 0.0 1.0 0.00 0.38 0.00 94 1012.6
20260510060004 50 0 0.0 0.0 0.00 0.38 0.00 94 1012.2
20260510055404 50 83 0.0 2.0 0.00 0.38 0.00 94 1012.2
20260510054504 50 0 0.0 0.0 0.00 0.38 0.00 94 1012.2
20260510053604 50 82 0.0 1.0 0.00 0.38 0.00 94 1012.2
20260510052704 50 0 0.0 0.0 0.00 0.38 0.00 94 1012.6
20260510051804 50 82 0.0 1.0 0.00 0.38 0.00 94 1012.6
20260510050904 50 82 0.0 1.0 0.00 0.38 0.00 94 1012.6
20260510050004 50 0 0.0 0.0 0.00 0.38 0.00 94 1012.9
20260510045404 50 82 0.0 1.0 0.00 0.38 0.00 94 1012.6
20260510044504 50 0 0.0 0.0 0.00 0.38 0.00 94 1012.6
20260510043604 50 0 0.0 0.0 0.00 0.38 0.00 94 1012.2
20260510042704 50 0 0.0 0.0 0.00 0.38 0.00 94 1012.6
20260510041804 50 0 0.0 0.0 0.00 0.38 0.00 94 1012.2
20260510040903 51 0 0.0 0.0 0.00 0.38 0.00 94 1012.6
20260510040004 51 0 0.0 0.0 0.00 0.38 0.00 94 1012.6
20260510035404 51 82 0.0 1.0 0.00 0.38 0.38 94 1012.2
20260510034525 51 0 0.0 0.0 0.00 0.38 0.38 94 1012.6
20260510033604 51 82 0.0 1.0 0.00 0.38 0.38 94 1012.6
20260510032703 51 0 0.0 0.0 0.00 0.38 0.38 94 1012.6
20260510031824 51 0 0.0 0.0 0.00 0.38 0.38 94 1012.2
20260510030904 51 0 0.0 0.0 0.00 0.38 0.38 94 1012.6
20260510030004 51 0 0.0 0.0 0.00 0.38 0.38 94 1012.6
20260510025403 51 0 0.0 0.0 0.00 0.38 0.38 94 1012.9
20260510024504 51 82 0.0 1.0 0.00 0.38 0.38 94 1012.6
20260510023624 51 82 0.0 1.0 0.00 0.38 0.38 94 1012.2
20260510022724 51 82 0.0 1.0 0.00 0.38 0.38 94 1012.2
20260510021803 51 82 0.0 1.0 0.00 0.38 0.38 94 1012.2
20260510020903 51 83 0.0 1.0 0.00 0.38 0.38 94 1012.6
20260510020004 51 79 0.0 3.0 0.00 0.38 0.38 94 1012.6
20260510015424 51 71 0.0 3.0 0.00 0.38 0.38 94 1012.6
20260510014503 51 0 0.0 0.0 0.00 0.38 0.38 94 1012.6
20260510013603 51 0 0.0 0.0 0.00 0.38 0.38 94 1012.9
20260510012703 51 41 0.0 1.0 0.00 0.38 0.38 94 1012.6
20260510011803 51 41 0.0 1.0 0.00 0.38 0.38 94 1012.6
20260510010904 51 41 0.0 1.0 0.00 0.38 0.38 94 1012.2
20260510010024 51 54 0.0 3.0 0.00 0.38 0.38 93 1012.2
20260510005403 51 52 0.0 3.0 0.00 0.38 0.38 93 1011.9
20260510004503 51 32 0.0 1.0 0.00 0.38 0.38 92 1012.2
20260510003603 51 0 0.0 0.0 0.00 0.38 0.38 92 1011.9
20260510002704 52 28 0.0 1.0 0.00 0.38 0.38 93 1011.5
20260510001803 52 65 0.0 1.0 0.00 0.38 0.38 93 1011.9
20260510000925 52 117 0.0 3.0 0.00 0.38 0.38 93 1011.5
20260510000003 52 130 1.0 3.0 0.00 0.38 0.38 93 1011.9
20260509235403 52 120 0.0 2.0 0.00 0.38 0.38 93 1011.9
20260509234504 52 133 1.0 4.0 0.00 0.38 0.38 93 1011.9
20260509233604 52 115 1.0 6.0 0.00 0.38 0.38 93 1011.9
20260509232724 52 119 1.0 4.0 0.00 0.38 0.38 93 1011.5
20260509231803 52 120 1.0 4.0 0.00 0.38 0.38 93 1011.5
20260509230924 52 139 1.0 4.0 0.01 0.38 0.38 92 1011.9
20260509230003 52 88 1.0 4.0 0.01 0.38 0.38 92 1011.9
20260509225403 52 102 0.0 3.0 0.03 0.38 0.38 92 1012.2
20260509224503 52 76 0.0 2.0 0.05 0.38 0.38 92 1012.2
20260509223603 52 53 0.0 1.0 0.06 0.38 0.38 91 1012.2
20260509222703 52 54 0.0 1.0 0.07 0.38 0.38 91 1012.2
20260509221803 52 52 0.0 1.0 0.08 0.38 0.38 90 1012.6
20260509220903 52 51 0.0 1.0 0.07 0.37 0.37 90 1012.2
20260509220003 53 48 0.0 3.0 0.08 0.37 0.37 90 1012.2
20260509215403 53 48 0.0 3.0 0.06 0.35 0.35 90 1012.6
20260509214503 53 358 0.0 1.0 0.04 0.33 0.33 90 1012.6
20260509213603 53 0 0.0 0.0 0.04 0.32 0.32 90 1012.6
20260509212724 53 0 0.0 0.0 0.04 0.31 0.31 90 1012.2
20260509211803 53 343 0.0 1.0 0.04 0.30 0.30 90 1012.6
20260509210924 53 0 0.0 0.0 0.05 0.30 0.30 90 1012.2
20260509210024 53 0 0.0 0.0 0.07 0.29 0.29 90 1012.2
20260509205403 53 342 0.0 1.0 0.09 0.29 0.29 91 1012.2
20260509204503 53 0 0.0 0.0 0.11 0.29 0.29 91 1012.6
20260509203603 53 351 0.0 1.0 0.12 0.28 0.28 91 1012.6
20260509202703 53 46 0.0 2.0 0.13 0.27 0.27 92 1012.6
20260509201803 53 344 0.0 2.0 0.14 0.26 0.26 92 1012.6
20260509200903 53 356 0.0 2.0 0.15 0.25 0.25 92 1012.6
20260509200005 53 97 0.0 1.0 0.13 0.22 0.22 91 1012.9
20260509195405 53 98 0.0 1.0 0.11 0.20 0.20 91 1012.9
20260509194504 53 0 0.0 0.0 0.09 0.18 0.18 90 1012.9
20260509193604 53 0 0.0 0.0 0.07 0.16 0.16 89 1012.6
20260509192704 54 0 0.0 0.0 0.05 0.14 0.14 88 1012.9
20260509191825 54 99 0.0 1.0 0.03 0.12 0.12 87 1012.9